User: anonymous   Login
Location: Unspecified
(0.0000°N, 0.0000°E)
Time: 16:38:47
(UTC+00:00)
Language:

COSMOS 2390 - Orbit

View from above orbital plane
View from above orbital plane
View from above satellite
View from above satellite

Ground track
Ground track

The orbit data is extracted from the following two-line orbital elements,

1 27464U 02036A   17204.90298347 +.00000019 +00000-0 +65720-4 0  9994
2 27464 082.4820 217.1204 0025131 164.1767 196.0106 12.44564281683490
Epoch (UTC): 23 July 2017 21:40:17
Eccentricity: 0.0025131
inclination: 82.4820°
perigee height: 1467 km
apogee height: 1507 km
right ascension of ascending node: 217.1204°
argument of perigee: 164.1767°
revolutions per day: 12.44564281
mean anomaly at epoch: 196.0106°
orbit number at epoch: 68349

The dashed part of the orbit path shows where the satellite is in the earth's shadow,  

DLR